Weather History for Pardubice, Czech Republic

Change the Weather History Date:

Saturday, March 9, 2013

  Actual Average Record
Temperature  
Mean Temperature 40 °F -  
Max Temperature 42 °F - - ()
Min Temperature 37 °F - - ()
Degree Days  
Heating Degree Days 26    
Moisture  
Dew Point 38 °F    
Average Humidity 94    
Maximum Humidity 100    
Minimum Humidity 87    
Precipitation  
Precipitation 0.00 in - - ()
Sea Level Pressure  
Sea Level Pressure 29.62 in    
Wind  
Wind Speed 1 mph ()    
Max Wind Speed 4 mph    
Max Gust Speed -    
Visibility 2.7 miles    
Events Rain    
T = Trace of Precipitation, MM = Missing Value Source: Averaged Metar Reports

Daily Weather History Graph

Daily Weather History Graph

Search for Another Location

Airport:

Trip Planner

Search our weather history database for the weather conditions in past years. The results will help you decide how hot, cold, wet, or windy it might be!

Date:

Astronomy

Mar. 09, 2013 Rise Set
Actual Time 6:23 AM CET 5:52 PM CET
Civil Twilight 5:51 AM CET 6:24 PM CET
Nautical Twilight 5:13 AM CET 7:02 PM CET
Astronomical Twilight 4:35 AM CET 7:40 PM CET
Moon 4:48 AM CET (3/9) 3:25 PM CET (3/9)
Length of Visible Light 12h 33m
Length of Day
11h 28m
Waning Crescent, 7% of the Moon is Illuminated
Mar 9
Waning Crescent
Mar 11
New
Mar 19
First Quarter
Mar 27
Full
Apr 3
Last Quarter

Hourly Weather History & Observations

Time (CET) Temp. Windchill Dew Point Humidity Pressure Visibility Wind Dir Wind Speed Gust Speed Precip Events Conditions
12:00 AM 39.2 °F - 35.6 °F 87% 29.65 in 6.2 mi Variable 2.3 mph - N/A   Overcast
1:00 AM 39.2 °F - 35.6 °F 87% 29.65 in 6.2 mi Variable 2.3 mph - N/A   Overcast
2:00 AM 39.2 °F - 35.6 °F 87% 29.65 in 6.2 mi Variable 1.2 mph - N/A   Overcast
3:00 AM 39.2 °F - 35.6 °F 87% 29.62 in 6.2 mi Calm Calm - N/A   Overcast
4:00 AM 37.4 °F 34.9 °F 35.6 °F 93% 29.62 in 6.2 mi NNE 3.5 mph - N/A   Overcast
5:00 AM 37.4 °F - 35.6 °F 93% 29.62 in 6.2 mi Variable 2.3 mph - N/A   Overcast
6:00 AM 37.4 °F - 35.6 °F 93% 29.62 in 3.7 mi NW 2.3 mph - N/A   Overcast
6:18 AM 37.4 °F - 35.6 °F 93% 29.62 in 1.6 mi Variable 2.3 mph - N/A   Overcast
7:00 AM 37.4 °F - 35.6 °F 93% 29.65 in 1.6 mi Variable 1.2 mph - N/A   Light Drizzle
8:00 AM 37.4 °F - 35.6 °F 93% 29.65 in 1.6 mi Variable 2.3 mph - N/A   Light Drizzle
9:00 AM 37.4 °F - 37.4 °F 100% 29.65 in 1.6 mi Calm Calm - N/A   Light Drizzle
10:00 AM 39.2 °F - 37.4 °F 93% 29.65 in 1.9 mi Variable 2.3 mph - N/A   Light Drizzle
11:00 AM 39.2 °F - 37.4 °F 93% 29.65 in 1.9 mi Variable 2.3 mph - N/A   Light Drizzle
12:00 PM 41.0 °F - 39.2 °F 93% 29.62 in 2.2 mi Variable 1.2 mph - N/A   Light Drizzle
1:00 PM 41.0 °F - 39.2 °F 93% 29.62 in 1.9 mi Variable 2.3 mph - N/A   Light Drizzle
1:44 PM 41.0 °F - 41.0 °F 100% 29.62 in 1.6 mi Variable 1.2 mph - N/A   Light Drizzle
2:00 PM 41.0 °F - 41.0 °F 100% 29.62 in 1.2 mi Variable 1.2 mph - N/A   Light Drizzle
3:00 PM 42.8 °F - 41.0 °F 93% 29.59 in 1.2 mi Calm Calm - N/A   Light Drizzle
4:00 PM 42.8 °F - 41.0 °F 93% 29.59 in 1.2 mi Variable 2.3 mph - N/A   Light Drizzle
5:00 PM 41.0 °F - 39.2 °F 93% 29.59 in 1.6 mi Variable 2.3 mph - N/A   Overcast
6:00 PM 39.2 °F - 39.2 °F 100% 29.59 in 1.6 mi Calm Calm - N/A Rain Light Rain
7:00 PM 39.2 °F - 39.2 °F 100% 29.59 in 1.6 mi Calm Calm - N/A Rain Light Rain
8:00 PM 39.2 °F - 39.2 °F 100% 29.59 in 1.6 mi Variable 1.2 mph - N/A Rain Light Rain
9:00 PM 39.2 °F - 37.4 °F 93% 29.59 in 1.6 mi Calm Calm - N/A Rain Light Rain
10:00 PM 37.4 °F - 37.4 °F 100% 29.59 in 1.6 mi Calm Calm - N/A   Overcast
11:00 PM 37.4 °F - 37.4 °F 100% 29.59 in 1.2 mi Calm Calm - N/A   Overcast